Weather History for College Station, TX

Change the Weather History Date:

Thursday, August 22, 2013

  Actual Average Record
Temperature  
Mean Temperature 88 °F 85 °F  
Max Temperature 100 °F 96 °F 108 °F (1917)
Min Temperature 75 °F 75 °F 59 °F (1940)
Degree Days  
Heating Degree Days 0 0  
Month to date heating degree days 0 0  
Since 1 June heating degree days 0 0  
Since 1 July heating degree days 0 0  
Cooling Degree Days 23 20  
Month to date cooling degree days 502 458  
Year to date cooling degree days 2281 2173  
Since 1 June cooling degree days 1717 1585  
Growing Degree Days 36 (Base 50)    
Moisture  
Dew Point 70 °F    
Average Humidity 63    
Maximum Humidity 87    
Minimum Humidity 38    
Precipitation  
Precipitation T in 0.09 in 1.44 in (1969)
Month to date precipitation 0.78 1.74  
Year to date precipitation 19.73 24.58  
Sea Level Pressure  
Sea Level Pressure 30.00 in    
Wind  
Wind Speed 4 mph (ESE)    
Max Wind Speed 18 mph    
Max Gust Speed 23 mph    
Visibility 10 miles    
Events Thunderstorm    
T = Trace of Precipitation, MM = Missing Value Source: NWS Daily Summary

Daily Weather History Graph

Daily Weather History Graph

Search for Another Location

Airport:

Trip Planner

Search our weather history database for the weather conditions in past years. The results will help you decide how hot, cold, wet, or windy it might be!

Date:

Astronomy

Aug. 22, 2013 Rise Set
Actual Time 6:56 AM CDT 7:59 PM CDT
Civil Twilight 6:31 AM CDT 8:24 PM CDT
Nautical Twilight 6:01 AM CDT 8:54 PM CDT
Astronomical Twilight 5:31 AM CDT 9:24 PM CDT
Moon 8:58 PM CDT (8/22) 8:34 AM CDT (8/22)
Length of Visible Light 13h 53m
Length of Day
13h 03m
Waning Gibbous, 96% of the Moon is Illuminated
Aug 22
Waning Gibbous
Aug 28
Last Quarter
Sep 5
New
Sep 12
First Quarter
Sep 19
Full

Hourly Weather History & Observations

Time (CDT) Temp. Heat Index Dew Point Humidity Pressure Visibility Wind Dir Wind Speed Gust Speed Precip Events Conditions
12:53 AM 80.1 °F 83.2 °F 70.0 °F 71% 30.03 in 10.0 mi Calm Calm - N/A   Clear
1:53 AM 79.0 °F - 71.1 °F 77% 30.02 in 10.0 mi Calm Calm - N/A   Clear
2:53 AM 77.0 °F - 70.0 °F 79% 30.02 in 10.0 mi ESE 3.5 mph - N/A   Clear
3:53 AM 77.0 °F - 71.1 °F 82% 30.03 in 10.0 mi SSE 3.5 mph - N/A   Clear
4:53 AM 75.9 °F - 71.1 °F 85% 30.03 in 10.0 mi Calm Calm - N/A   Clear
5:53 AM 77.0 °F - 72.0 °F 84% 30.04 in 10.0 mi Calm Calm - N/A   Clear
6:53 AM 75.9 °F - 72.0 °F 87% 30.06 in 10.0 mi Calm Calm - N/A   Clear
7:53 AM 78.1 °F - 73.0 °F 84% 30.08 in 10.0 mi ENE 4.6 mph - N/A   Clear
8:53 AM 82.9 °F 90.2 °F 75.0 °F 77% 30.08 in 10.0 mi ENE 3.5 mph - N/A   Partly Cloudy
9:53 AM 86.0 °F 93.8 °F 73.9 °F 67% 30.07 in 10.0 mi ENE 4.6 mph - N/A   Scattered Clouds
10:53 AM 87.1 °F 94.5 °F 73.0 °F 63% 30.07 in 10.0 mi Calm Calm - N/A   Scattered Clouds
11:53 AM 91.0 °F 97.6 °F 71.1 °F 52% 30.06 in 10.0 mi Variable 4.6 mph - N/A   Partly Cloudy
12:53 PM 93.0 °F 99.0 °F 70.0 °F 47% 30.03 in 10.0 mi Variable 4.6 mph - N/A   Partly Cloudy
1:53 PM 95.0 °F 99.5 °F 68.0 °F 41% 30.00 in 10.0 mi ESE 4.6 mph - N/A   Partly Cloudy
2:53 PM 97.0 °F 101.0 °F 66.9 °F 37% 29.97 in 10.0 mi SSE 4.6 mph - N/A   Partly Cloudy
3:53 PM 97.0 °F 100.4 °F 66.0 °F 36% 29.94 in 10.0 mi Variable 3.5 mph - N/A   Partly Cloudy
4:53 PM 96.1 °F 99.3 °F 66.0 °F 37% 29.93 in 10.0 mi East 10.4 mph - N/A Thunderstorm Mostly Cloudy
5:19 PM 95.0 °F 98.5 °F 66.2 °F 39% 29.94 in 10.0 mi SE 8.1 mph - N/A   Partly Cloudy
5:53 PM 95.0 °F 97.9 °F 66.0 °F 38% 29.92 in 10.0 mi East 11.5 mph - N/A   Partly Cloudy
6:02 PM 95.0 °F 98.5 °F 66.2 °F 39% 29.93 in 10.0 mi ESE 8.1 mph - N/A Thunderstorm Thunderstorm
6:29 PM 89.6 °F 92.2 °F 66.2 °F 46% 29.93 in 10.0 mi ENE 11.5 mph - N/A   Scattered Clouds
6:53 PM 93.0 °F 95.0 °F 64.9 °F 39% 29.91 in 10.0 mi ENE 6.9 mph - 0.00 in   Mostly Cloudy
7:46 PM 87.8 °F 90.4 °F 66.2 °F 49% 29.94 in 10.0 mi SE 18.4 mph 23.0 mph N/A Thunderstorm Clear
7:53 PM 84.9 °F 88.8 °F 69.1 °F 59% 29.92 in 10.0 mi SSE 11.5 mph 23.0 mph N/A Thunderstorm Clear
8:53 PM 82.9 °F 87.5 °F 71.1 °F 67% 29.96 in 10.0 mi SSE 5.8 mph - N/A   Scattered Clouds
9:53 PM 82.9 °F 88.0 °F 72.0 °F 69% 29.99 in 10.0 mi South 4.6 mph - N/A   Clear
10:53 PM 82.0 °F 87.4 °F 73.0 °F 74% 29.99 in 10.0 mi South 3.5 mph - N/A   Clear
11:53 PM 81.0 °F 86.2 °F 73.9 °F 79% 29.99 in 10.0 mi Calm Calm - N/A   Clear